ONEWEB-0407

operational
NORAD ID: 50487 Int'l Des: 2021-132 Owner: ONEWEBN Country: UK Constellation: oneweb
LEOCIRCULARPOLARONEWEB_TYPE

Über ONEWEB-0407

Beschreibung wird geladen...

Live-Position

3D-Globus wird geladen...

Nächste Überflüge

Höhenverlauf

Altitude vs Time

uPlot chart will show altitude changes over time

Zweizeiliger Elementsatz

1 50487U 21132U 25250.09660242 .00003177 00000-0 80204-2 0 9990
2 50487 87.9176 31.6582 0001921 94.2936 265.8415 13.18714169184257
Epoch: 7. Sept. 2025 • Age: 22 hours

Aktueller Status

Höhe 1196.8 km
Geschwindigkeit 7.26 km/s
Subsatellitenpunkt 51.16°N, 40.3°E
Startdatum 27. Dez. 2021
Alter 3.6 years
Typ internet

Technische Details

Klassifizierung Payload
Masse 148.00 kg
Trockenmasse 140.00 kg
Gesamtmasse 148.00 kg
Länge 1.30 m
Durchmesser 1.00 m
Spannweite 5.00 m
Form Trapezoid+2 pan
Hersteller ONEWUS
Bus-Typ ARROW
Phasenstatus In Orbit
Besitzer/Staat ONEWEBN/UK

Große Konstellationen

Loading constellations...